Location: Plainartige
(45.6866°N, 1.7993°E)
Time: 16:06:31
(UTC+00:00)

Tiros 1 - Pass Details

Date: 31 May 2022
Orbit: 629 x 663 km, 48.4° (Epoch: 05 July)

Event Time Altitude Azimuth Distance (km) Brightness Sun altitude
Exits shadow 22:25:10 37° 115° (ESE) 987 7.7 -19.6°
Drops below altitude 10° 22:28:33 10° 77° (ENE) 2,012 9.6 -19.8°
Sets 22:30:58 0° 71° (ENE) 2,926 10.5 -19.9°
